• MPC Preparation (Info)

  • MPEC 2010-S70 : 2010 SU15

    The following Minor Planet Electronic Circular may be linked-to from your own Web pages, but must not otherwise be redistributed electronically.

    A form allowing access to any MPEC is at the bottom of this page.


    Read MPEC 2010-S69 Read MPEC 2010-S71


    M.P.E.C. 2010-S70                                Issued 2010 Sept. 30, 16:30 UT
    
         The Minor Planet Electronic Circulars contain information on unusual
             minor planets and routine data on comets.  They are published
       on behalf of Commission 20 of the International Astronomical Union by the
              Minor Planet Center, Smithsonian Astrophysical Observatory,
                              Cambridge, MA 02138, U.S.A.
    
                 Prepared using the Tamkin Foundation Computer Network
    
                                  MPC@CFA.HARVARD.EDU
           URL https://www.minorplanetcenter.org/iau/mpc.html  ISSN 1523-6714
    
                                       2010 SU15
    
    Observations:
         K10S15U* C2010 09 30.25135 00 16 27.58 -03 29 59.0          20.3 V ES070G96
         K10S15U  C2010 09 30.25741 00 16 30.50 -03 29 04.3          21.0 V ES070G96
         K10S15U  C2010 09 30.26315 00 16 33.27 -03 28 12.9          20.8 V ES070G96
         K10S15U  C2010 09 30.26885 00 16 36.01 -03 27 21.1          20.8 V ES070G96
         K10S15U  C2010 09 30.34927 00 17 14.71 -03 15 13.1          20.6 V ES070G96
         K10S15U  C2010 09 30.35222 00 17 16.11 -03 14 46.6          21.2 V ES070G96
         K10S15U  C2010 09 30.35523 00 17 17.59 -03 14 19.5          20.8 V ES070G96
         K10S15U  C2010 09 30.35824 00 17 19.03 -03 13 52.3          21.0 V ES070G96
         K10S15U  C2010 09 30.38290 00 17 30.98 -03 10 08.7          20.9 V ES070G96
         K10S15U  C2010 09 30.38338 00 17 31.23 -03 10 04.2          21.5 V ES070G96
         K10S15U  C2010 09 30.38382 00 17 31.45 -03 10 00.3          20.7 V ES070G96
         K10S15U  C2010 09 30.38428 00 17 31.66 -03 09 56.0          20.7 V ES070G96
    
    Observer details:
    G96 Mt. Lemmon Survey.  Observer A. R. Gibbs.  Measurers J. D. Ahern,
        E. C. Beshore, A. Boattini, G. J. Garradd, A. R. Gibbs, A. D. Grauer,
        R. E. Hill, R. A. Kowalski, S. M. Larson, R. H. McNaught.  1.5-m reflector
        + CCD.
    
    Orbital elements:
    2010 SU15                                                Earth MOID = 0.0791 AU
    Epoch 2010 July 23.0 TT = JDT 2455400.5                 MPC
    M 348.04329              (2000.0)            P               Q
    n   0.17123240     Peri.  356.86636     +0.99220004     -0.12353992
    a   3.2117773      Node    10.27495     +0.11630255     +0.86937474
    e   0.6638056      Incl.    5.35360     +0.04486424     +0.47846154
    P   5.76           H   25.7           G   0.15           U   9
    Residuals in seconds of arc
    100930 G96  0.0   0.2+    100930 G96  0.1+  0.3+    100930 G96  0.2-  0.1-
    100930 G96  0.0   0.1+    100930 G96  0.2-  0.1+    100930 G96  0.1+  0.0
    100930 G96  0.1+  0.3-    100930 G96  0.2+  0.1-    100930 G96  0.2+  0.0
    100930 G96  0.0   0.0     100930 G96  0.1-  0.2-    100930 G96  0.1-  0.1+
    
    Ephemeris:
    2010 SU15                a,e,i = 3.21, 0.66, 5                   q = 1.0798
    Date    TT    R. A. (2000) Decl.     Delta      r     Elong.  Phase     V
    2010 10 01    00 22.91   -01 36.0    0.0787   1.080   175.2     4.4    20.7
    2010 10 02    00 31.54   +00 54.9    0.0789   1.080   177.5     2.3    20.6
    2010 10 03    00 40.10   +03 24.5    0.0794   1.080   178.7     1.2    20.5
    2010 10 04    00 48.55   +05 51.3    0.0802   1.081   177.0     2.8    20.7
    2010 10 05    00 56.86   +08 14.1    0.0813   1.081   174.8     4.8    20.8
    2010 10 06    01 05.01   +10 31.8    0.0827   1.082   172.7     6.8    21.0
    2010 10 07    01 12.95   +12 43.6    0.0844   1.083   170.6     8.7    21.1
    2010 10 08    01 20.68   +14 48.7    0.0863   1.084   168.7    10.4    21.2
    2010 10 09    01 28.17   +16 46.7    0.0884   1.085   166.9    12.1    21.3
    2010 10 10    01 35.41   +18 37.5    0.0908   1.087   165.2    13.6    21.5
    2010 10 11    01 42.39   +20 20.9    0.0934   1.088   163.6    15.0    21.6
    2010 10 12    01 49.09   +21 57.0    0.0962   1.090   162.2    16.2    21.7
    2010 10 13    01 55.51   +23 26.0    0.0992   1.092   161.0    17.3    21.8
    2010 10 14    02 01.65   +24 48.1    0.102    1.094   159.9    18.3    21.9
    2010 10 15    02 07.51   +26 03.7    0.106    1.096   158.9    19.1    22.0
    2010 10 16    02 13.08   +27 13.1    0.109    1.099   158.0    19.9    22.1
    2010 10 17    02 18.38   +28 16.8    0.113    1.101   157.2    20.5    22.2
    2010 10 18    02 23.41   +29 15.1    0.116    1.104   156.6    21.0    22.3
    2010 10 19    02 28.18   +30 08.3    0.120    1.107   156.1    21.4    22.4
    2010 10 20    02 32.68   +30 56.9    0.124    1.110   155.6    21.7    22.4
    2010 10 21    02 36.94   +31 41.2    0.128    1.113   155.3    22.0    22.5
    
    Timothy B. Spahr             (C) Copyright 2010 MPC           M.P.E.C. 2010-S70
    

    Read MPEC 2010-S69 Read MPEC 2010-S71


    MPEC number:

    Enter an MPEC number in one of the following forms:

    • 1997-B01 (the full form)
    • J97B01 (the packed version of the full form)
    • B01 (the abbreviated form)